SYRACUSE 3A

Last updated on Sat Jul 18 2026 00:03:00 GMT+0000 (Coordinated Universal Time)

1 28885U 05041B 26198.68794742 .00000118 00000+0 00000+0 0 9992 2 28885 4.7171 75.4626 0002250 24.9298 129.3964 1.00262943 76055
UTC large
Height (km)
Speed (km/s)
/
Latitude / Longitude
Inclination (degrees)
Orbital Period (minutes)
Azimuth
Elevation
Range (km)
Doppler Factor

Next 0 passes for location: London (51.5072 / 0.1276)

No passes found over London.
SYRACUSE 3A